Location: Tamazert
(32.6352°N, 5.2072°W)
Time: 16:02:32
(UTC+00:00)

Cosmos 1066 - Pass Details

Date: 22 May 2022
Orbit: 819 x 888 km, 81.2° (Epoch: 29 June)

Event Time Altitude Azimuth Distance (km) Brightness Sun altitude
Exits shadow 02:42:09 83° 232° (SW) 836 4.5 -26.7°
Maximum altitude 02:42:19 85° 278° (W) 833 4.5 -26.7°
Drops below altitude 10° 02:47:52 10° 7° (N) 2,449 7.8 -26.0°
Sets 02:50:18 0° 8° (N) 3,396 8.7 -25.6°
